[[{"header":{"parameterUnit":"m.s-1","parameterCategory":1,"la1":30.2991,"la2":30.254,"lo1":-89.0895,"lo2":-89.0444,"dy":0.0017,"dx":0.0017,"nx":28,"ny":28,"refTime":"2025-12-19T03:00:00:Z","depth":0,"parameterNumber":2,"parameterNumberName":"U-component_of_WINDS"},"data":[0,0,0,0,0,0,0,0,0,0,0,0,0,0,0,0,0,0,0,0,0,0,0,0,0,0,0,0,0,0,0,0,0,0,0,0,0,0,0,0,0,0,0,0,0,0,0,0,0,0,0,0,0,0,0,0,0,0,0.9893,0.9894,0,0.9935,0.9935,0.9936,0.9943,0.9942,0.9942,0.9942,0.9984,0.9985,0.9987,0,0,0,0,0,0,0,0,0,0,0,0,0,0.9821,0.9822,0.9893,0.9894,0.9894,0.9935,0.9935,0.9936,0.9943,0.9942,0.9942,0.9942,0.9983,0.9985,0.9987,0,0,0,0,0,0,0,0,0,0,0,0,0,0.9857,0.9823,0.9893,0.9903,0.9904,0.9935,0.9935,0.9936,0.9943,0.9942,0.9942,0.9941,0.9983,0.9985,0.9987,1.0011,0,0,0.9994,0.9995,0,0,0,0,0,0,0,0,0.9854,0.9859,0.9901,0.9902,0.9904,0.9933,0.9925,0.9961,0.9943,0.9928,0.9942,0.9941,0.9967,0.9971,0.998,1.0013,1.0015,0.9994,0.9995,0.9996,0.9997,0,0,0,0,0,0,0,0.9852,0.9857,0.991,0.9901,0.9903,0.9905,0.991,0.9932,0.995,0.9929,0.993,0.9935,0.9968,0.9978,0.9981,1.0016,0.9994,0.9996,0.9997,0.9998,1.0073,1.0073,0,0,0,0,0,0,0.9848,0.9855,0.9909,0.9911,0.9877,0.9907,0.9912,0.9924,0.995,0.9953,0.9935,0.9935,0.9974,0.9978,0.9982,1.0013,0.9996,0.9998,0.9999,1.0072,1.0073,1.0074,0,0,0,0,0,0,0.9846,0.9853,0.9907,0.9883,0.989,0.9909,0.9923,0.9925,0.9935,0.9954,0.9958,0.9942,0.9974,0.9979,1.0004,1.0015,0.9999,1.0001,1.0071,1.0072,1.0073,1.0075,0,0,0,0,0,0,0.9844,0.9852,0.9861,0.9884,0.9892,0.9928,0.9923,0.9927,0.9939,0.9939,0.9961,0.9965,0.9974,1.0001,1.0007,1.0017,1.0003,1.007,1.0072,1.0073,1.0074,1.0076,1.0077,0,0,0,0,0,0.9842,0.9859,0.9861,0.9868,0.9903,0.9928,0.9933,0.9944,0.9939,0.9949,0.9962,0.9964,1.0013,1.0004,1.001,1.0022,1.007,1.0071,1.0073,1.0073,1.0075,1.0077,0,0,0,0,0,0,0.9837,0.9862,0.9865,0.989,0.9907,0.993,0.9942,0.9945,0.9964,0.9963,0.9975,0.998,1.0005,1.0016,1.0005,1.0047,1.0041,1.0044,1.0039,1.0041,1.0043,1.004,1.0005,0,0,0,0,0,0.9839,0.9857,0.9878,0.9899,0.9907,0.9923,0.9934,0.9941,0.9959,0.9966,0.9981,0.9998,1.0018,1.003,1.0049,1.0076,1.0081,1.0087,1.0089,1.009,1.0092,1.0108,1.0111,1.0079,1.0079,1.0079,0,0,0.9842,0.9859,0.9869,0.9898,0.9912,0.9931,0.9929,0.9949,0.9963,0.9969,0.9994,1.0006,1.0026,1.0052,1.0064,1.0062,1.0103,1.0092,1.0093,1.0094,1.011,1.0113,1.0116,1.008,1.0079,1.0079,0,0,0.986,0.9873,0.9893,0.9907,0.9928,0.9939,0.9944,0.9966,0.9974,1.0,1.0005,1.0022,1.0055,1.007,1.0082,1.0107,1.011,1.0113,1.0121,1.0137,1.014,1.0142,1.0152,1.0155,1.0115,1.0115,1.0115,0,0.9862,0.989,0.9902,0.9922,0.9935,0.9942,0.9962,0.9976,1.0002,1.0011,1.0008,1.005,1.0065,1.0095,1.0101,1.011,1.0117,1.011,1.0138,1.0141,1.0143,1.0153,1.0156,1.0115,1.0115,1.0115,1.0115,0,0.9893,0.9913,0.9926,0.9952,0.9966,0.9986,1.0001,1.0014,1.002,1.0032,1.0058,1.0076,1.0099,1.0107,1.0112,1.0139,1.0137,1.0136,1.013,1.0146,1.0156,1.0159,1.0115,1.0115,1.0115,1.0115,0,0,0.9906,0.994,0.9945,0.9957,0.9982,0.9998,1.0019,1.0042,1.0054,1.0072,1.009,1.0119,1.0119,1.0132,1.014,1.0154,1.0174,1.0152,1.0152,1.0156,1.0205,1.0206,1.021,1.0176,1.0177,1.0177,1.0204,0,0.9927,0.9964,0.9976,1.0007,1.0027,1.0035,1.0053,1.0071,1.0082,1.0101,1.0114,1.0134,1.0132,1.014,1.0154,1.0168,1.0184,1.0167,1.0194,1.0195,1.0189,1.0214,1.0215,1.0238,1.0207,1.0208,1.0208,0,0.9955,0.9975,1.0009,1.0033,1.0041,1.0057,1.0081,1.0098,1.0119,1.0126,1.0142,1.0149,1.0172,1.0165,1.0197,1.0186,1.0198,1.0206,1.0208,1.021,1.0202,1.0218,1.0246,1.025,1.0214,1.0213,1.0213,0,0.9963,0.9998,1.0023,1.0033,1.0062,1.0073,1.0086,1.0106,1.012,1.014,1.0149,1.0172,1.0184,1.0202,1.0215,1.0209,1.0247,1.0241,1.0254,1.0254,1.0262,1.0261,1.0292,1.0269,1.0269,1.0269,1.0269,0,0.9985,1.0005,1.0027,1.0042,1.0066,1.008,1.0103,1.0115,1.0134,1.0152,1.0161,1.0178,1.0194,1.0214,1.0224,1.025,1.0256,1.0263,1.0265,1.0262,1.0261,1.027,1.0269,1.027,1.027,1.0269,1.0269,0,0.9997,1.0013,1.004,1.0066,1.0073,1.0089,1.0111,1.0126,1.0139,1.0162,1.0168,1.0188,1.0212,1.0227,1.0257,1.0264,1.0293,1.0295,1.0286,1.0287,1.03,1.0299,1.0338,1.0344,1.0317,1.0317,1.0317,0,1.001,1.0026,1.0053,1.0067,1.0079,1.01,1.0115,1.0129,1.0144,1.017,1.0183,1.0207,1.0227,1.0265,1.0282,1.0306,1.0309,1.0321,1.0312,1.0309,1.031,1.0309,1.0311,1.0322,1.0322,1.0323,1.0323,0,1.0031,1.0039,1.0059,1.0083,1.01,1.0119,1.0139,1.0149,1.0167,1.0184,1.0208,1.0224,1.0256,1.028,1.0305,1.0319,1.0324,1.0326,1.033,1.0327,1.0321,1.0325,1.029,1.0324,1.0324,1.0324,1.0324,1.0324,1.0045,1.006,1.0082,1.0105,1.0121,1.014,1.0156,1.0171,1.0192,1.0219,1.0227,1.0253,1.0275,1.0309,1.0323,1.0344,1.0343,1.0349,1.0351,1.0352,1.0353,1.0318,1.0349,1.0349,1.0349,1.0349,1.0349,0,1.0067,1.0082,1.0103,1.0131,1.0149,1.0153,1.0175,1.019,1.0213,1.0233,1.0254,1.0283,1.0307,1.0327,1.0352,1.0365,1.0368,1.0371,1.037,1.0374,1.0352,1.0346,1.0368,1.0368,1.0368,1.0368,1.0368,1.0368,1.0081,1.0107,1.0118,1.0152,1.0167,1.0193,1.0206,1.0223,1.0239,1.0271,1.0292,1.0305,1.0325,1.0352,1.0375,1.038,1.0389,1.0392,1.0398,1.0377,1.0375,1.0373,1.0367,1.0394,1.0394,1.0418,1.0418,1.0418]},{"header":{"parameterUnit":"m.s-1","parameterCategory":1,"la1":30.2991,"la2":30.254,"lo1":-89.0895,"lo2":-89.0444,"dy":0.0017,"dx":0.0017,"nx":28,"ny":28,"refTime":"2025-12-19T03:00:00:Z","depth":0,"parameterNumber":3,"parameterNumberName":"V-component_of_WINDS"},"data":[0,0,0,0,0,0,0,0,0,0,0,0,0,0,0,0,0,0,0,0,0,0,0,0,0,0,0,0,0,0,0,0,0,0,0,0,0,0,0,0,0,0,0,0,0,0,0,0,0,0,0,0,0,0,0,0,0,0,-4.5649,-4.565,0,-4.5705,-4.5705,-4.5706,-4.5682,-4.5681,-4.5679,-4.5678,-4.573,-4.5733,-4.5735,0,0,0,0,0,0,0,0,0,0,0,0,0,-4.5519,-4.5522,-4.5649,-4.565,-4.565,-4.5704,-4.5705,-4.5706,-4.5682,-4.568,-4.5679,-4.5677,-4.5729,-4.5732,-4.5736,0,0,0,0,0,0,0,0,0,0,0,0,0,-4.5575,-4.5523,-4.5649,-4.5645,-4.5645,-4.5704,-4.5705,-4.5706,-4.5682,-4.568,-4.5678,-4.5677,-4.5728,-4.5732,-4.5736,-4.58,0,0,-4.5748,-4.575,0,0,0,0,0,0,0,0,-4.5572,-4.558,-4.5645,-4.5645,-4.5646,-4.5684,-4.5679,-4.5738,-4.5683,-4.5668,-4.5678,-4.5676,-4.5716,-4.5721,-4.5736,-4.5803,-4.5805,-4.5748,-4.5751,-4.5752,-4.5754,0,0,0,0,0,0,0,-4.5568,-4.5577,-4.5671,-4.5646,-4.5646,-4.564,-4.5645,-4.569,-4.5702,-4.5669,-4.5668,-4.5675,-4.5716,-4.5732,-4.5737,-4.5806,-4.5748,-4.5752,-4.5754,-4.5756,-4.5932,-4.5934,0,0,0,0,0,0,-4.5565,-4.5574,-4.5669,-4.5672,-4.5603,-4.5644,-4.565,-4.5674,-4.5702,-4.5705,-4.5677,-4.5674,-4.5726,-4.5732,-4.5738,-4.5818,-4.5752,-4.5756,-4.5758,-4.5929,-4.5932,-4.5935,0,0,0,0,0,0,-4.5562,-4.5574,-4.5667,-4.5623,-4.5634,-4.5648,-4.5675,-4.5676,-4.5692,-4.5708,-4.5709,-4.5691,-4.5725,-4.5733,-4.5786,-4.5819,-4.5758,-4.5761,-4.5927,-4.593,-4.5933,-4.5976,0,0,0,0,0,0,-4.5559,-4.5573,-4.5598,-4.5624,-4.5637,-4.5714,-4.5677,-4.5679,-4.5699,-4.5696,-4.5721,-4.5724,-4.5724,-4.578,-4.579,-4.5824,-4.5765,-4.5924,-4.5928,-4.5932,-4.5972,-4.5981,-4.5988,0,0,0,0,0,-4.5554,-4.5606,-4.5599,-4.5611,-4.5669,-4.5716,-4.5724,-4.5724,-4.5702,-4.5727,-4.5738,-4.5723,-4.5814,-4.5786,-4.5797,-4.5832,-4.5922,-4.5927,-4.5932,-4.5968,-4.5979,-4.5988,0,0,0,0,0,0,-4.5581,-4.5609,-4.5602,-4.5664,-4.5688,-4.5712,-4.5744,-4.5735,-4.5765,-4.576,-4.5758,-4.5764,-4.582,-4.5831,-4.5799,-4.5897,-4.5864,-4.5872,-4.5888,-4.5899,-4.5907,-4.5903,-4.5768,0,0,0,0,0,-4.5594,-4.5632,-4.5654,-4.5707,-4.5719,-4.573,-4.575,-4.5749,-4.5774,-4.5783,-4.5797,-4.582,-4.5855,-4.5877,-4.5909,-4.5973,-4.5979,-4.6003,-4.6011,-4.6018,-4.6024,-4.6062,-4.6073,-4.5952,-4.5951,-4.5951,0,0,-4.5622,-4.5642,-4.5665,-4.5713,-4.5731,-4.577,-4.5738,-4.578,-4.5808,-4.5789,-4.5841,-4.5853,-4.5878,-4.5938,-4.5965,-4.5949,-4.606,-4.6024,-4.603,-4.6033,-4.6068,-4.608,-4.609,-4.5955,-4.5954,-4.5954,0,0,-4.5692,-4.5711,-4.5758,-4.5778,-4.5808,-4.5815,-4.5827,-4.5853,-4.5861,-4.5914,-4.5901,-4.5934,-4.5992,-4.6012,-4.603,-4.6111,-4.6099,-4.6121,-4.6164,-4.6201,-4.621,-4.6219,-4.625,-4.6261,-4.6128,-4.6128,-4.6128,0,-4.5722,-4.5781,-4.5783,-4.5827,-4.5849,-4.5835,-4.5884,-4.5902,-4.594,-4.5956,-4.5937,-4.6013,-4.6028,-4.6094,-4.6115,-4.6128,-4.6142,-4.6119,-4.6209,-4.6217,-4.6225,-4.6255,-4.6266,-4.613,-4.613,-4.613,-4.613,0,-4.5818,-4.5859,-4.5893,-4.5934,-4.5959,-4.6005,-4.6013,-4.6039,-4.6036,-4.6045,-4.61,-4.6119,-4.6157,-4.6172,-4.6168,-4.6238,-4.6227,-4.6209,-4.6176,-4.624,-4.6268,-4.6279,-4.6134,-4.6133,-4.6133,-4.6132,0,0,-4.5905,-4.5948,-4.5961,-4.5981,-4.6014,-4.6045,-4.6091,-4.6129,-4.6152,-4.6179,-4.6218,-4.6269,-4.6253,-4.6273,-4.6272,-4.6304,-4.637,-4.6282,-4.6283,-4.6299,-4.645,-4.6465,-4.6478,-4.6362,-4.6364,-4.6366,-4.6449,0,-4.5979,-4.6061,-4.6066,-4.614,-4.6179,-4.6168,-4.6208,-4.6233,-4.6243,-4.6277,-4.6287,-4.6325,-4.63,-4.6313,-4.6344,-4.6355,-4.64,-4.6349,-4.6398,-4.64,-4.6394,-4.6492,-4.6507,-4.6585,-4.646,-4.6461,-4.6463,0,-4.6077,-4.611,-4.619,-4.6221,-4.6237,-4.6273,-4.631,-4.6343,-4.6371,-4.6376,-4.64,-4.6395,-4.6442,-4.6407,-4.6472,-4.6437,-4.6457,-4.6466,-4.6469,-4.6475,-4.6436,-4.6502,-4.6609,-4.6622,-4.6479,-4.6478,-4.6477,0,-4.6135,-4.62,-4.6257,-4.6273,-4.631,-4.6336,-4.6352,-4.6378,-4.6402,-4.6434,-4.645,-4.6486,-4.6506,-4.6534,-4.6539,-4.6513,-4.6604,-4.6569,-4.661,-4.6611,-4.6631,-4.663,-4.6745,-4.6641,-4.6641,-4.6641,-4.6641,0,-4.6219,-4.6268,-4.6284,-4.6319,-4.6374,-4.6379,-4.6433,-4.6447,-4.6471,-4.6508,-4.65,-4.6535,-4.6538,-4.6574,-4.6578,-4.6632,-4.6641,-4.6646,-4.6647,-4.6648,-4.6648,-4.6662,-4.6657,-4.6644,-4.6643,-4.6643,-4.6642,0,-4.6293,-4.6306,-4.6367,-4.6398,-4.6407,-4.6447,-4.6473,-4.6507,-4.6517,-4.6564,-4.6575,-4.6591,-4.6633,-4.6641,-4.6689,-4.6692,-4.6758,-4.6752,-4.6749,-4.6749,-4.6791,-4.6787,-4.692,-4.6938,-4.6822,-4.6823,-4.6824,0,-4.6346,-4.6385,-4.6421,-4.6447,-4.6465,-4.6506,-4.6532,-4.6538,-4.6564,-4.6601,-4.663,-4.6672,-4.6706,-4.6774,-4.6789,-4.6827,-4.6823,-4.6867,-4.6828,-4.6829,-4.6826,-4.6824,-4.6829,-4.6874,-4.6876,-4.6877,-4.6878,0,-4.644,-4.6445,-4.6483,-4.6525,-4.6557,-4.6589,-4.6619,-4.664,-4.665,-4.6681,-4.6725,-4.6752,-4.6804,-4.6846,-4.6884,-4.69,-4.6891,-4.689,-4.6902,-4.6904,-4.6902,-4.6906,-4.6771,-4.6887,-4.6886,-4.6885,-4.6885,-4.6884,-4.6507,-4.6542,-4.6574,-4.6617,-4.6642,-4.6671,-4.6706,-4.6722,-4.6759,-4.6804,-4.6805,-4.6854,-4.6883,-4.6934,-4.6952,-4.699,-4.6976,-4.6993,-4.6997,-4.7002,-4.7007,-4.6895,-4.6997,-4.6997,-4.6997,-4.6996,-4.6996,0,-4.6602,-4.6623,-4.6663,-4.6708,-4.6743,-4.6734,-4.6767,-4.6797,-4.6841,-4.687,-4.6905,-4.6957,-4.6998,-4.7018,-4.7059,-4.7086,-4.7083,-4.7096,-4.7095,-4.7099,-4.7016,-4.7003,-4.7098,-4.7098,-4.7098,-4.7098,-4.7098,-4.7098,-4.6655,-4.6715,-4.6725,-4.6796,-4.6816,-4.6867,-4.6888,-4.6915,-4.6938,-4.6998,-4.7034,-4.7047,-4.7072,-4.7116,-4.7154,-4.7158,-4.7174,-4.719,-4.7193,-4.7115,-4.7105,-4.7095,-4.7083,-4.7193,-4.7193,-4.7273,-4.7274,-4.7275]}]]